Leesburg, VA

11:29 AM EDT on August 25, 2019 (GMT -0400)
Leesburg Executive

Weather History for KJYO - April, 2019

Change the Weather History Date:

Thursday, April 25, 2019

  Actual Average (KIAD) Record (KIAD)
Temperature  
Mean Temperature 67 °F -  
Max Temperature 77 °F 67 °F 93 °F (1960)
Min Temperature 57 °F 43 °F 29 °F (1969)
Cooling Degree Days 2    
Growing Degree Days 17 (Base 50)    
Moisture  
Dew Point 49 °F    
Average Humidity 59    
Maximum Humidity 100    
Minimum Humidity 34    
Precipitation  
Precipitation 0.00 in - - ()
Sea Level Pressure  
Sea Level Pressure 29.90 in    
Wind  
Wind Speed 1 mph (East)    
Max Wind Speed 10 mph    
Max Gust Speed -    
Visibility 10 miles    
Events      
Averages and records for this station are not official NWS values.
T = Trace of Precipitation, MM = Missing Value Source: NWS Daily Summary

Daily Weather History Graph

Daily Weather History Graph

Search for Another Location

Airport or City:

Astronomy

Apr. 25, 2019 Rise Set
Actual Time 6:19 AM EDT 7:57 PM EDT
Civil Twilight 5:51 AM EDT 8:25 PM EDT
Nautical Twilight 5:17 AM EDT 8:59 PM EDT
Astronomical Twilight 4:41 AM EDT 9:36 PM EDT
Moon 1:24 AM EDT 11:09 AM EDT
Length of Visible Light 14h 33m
Length of Day
13h 37m
Waning Gibbous, 62% of the Moon is Illuminated
Apr 25
Waning Gibbous
Apr 26
Last Quarter
May 4
New
May 11
First Quarter
May 18
Full

Hourly Weather History & Observations

Time (EDT) Temp. Dew Point Humidity Pressure Visibility Wind Dir Wind Speed Gust Speed Precip Events Conditions
12:15 AM 59.0 °F 51.8 °F 77% 29.92 in 10.0 mi Calm Calm - N/A   Scattered Clouds
12:35 AM 62.6 °F 48.2 °F 59% 29.92 in 10.0 mi Calm Calm - N/A   Clear
12:55 AM 60.8 °F 50.0 °F 68% 29.92 in 10.0 mi Calm Calm - N/A   Clear
1:15 AM 62.6 °F 46.4 °F 55% 29.92 in 10.0 mi Calm Calm - N/A   Scattered Clouds
1:35 AM 59.0 °F 51.8 °F 77% 29.92 in 10.0 mi Calm Calm - N/A   Scattered Clouds
1:55 AM 59.0 °F 51.8 °F 77% 29.92 in 10.0 mi Calm Calm - N/A   Overcast
2:15 AM 59.0 °F 50.0 °F 72% 29.91 in 10.0 mi Calm Calm - N/A   Overcast
2:35 AM 59.0 °F 50.0 °F 72% 29.91 in 10.0 mi Calm Calm - N/A   Overcast
2:55 AM 59.0 °F 50.0 °F 72% 29.90 in 10.0 mi Calm Calm - N/A   Mostly Cloudy
3:15 AM 60.8 °F 46.4 °F 59% 29.90 in 10.0 mi NNE 3.5 mph - N/A   Overcast
3:35 AM 60.8 °F 48.2 °F 63% 29.91 in 10.0 mi Calm Calm - N/A   Overcast
3:55 AM 59.0 °F 50.0 °F 72% 29.91 in 10.0 mi Calm Calm - N/A   Mostly Cloudy
4:15 AM 59.0 °F 48.2 °F 67% 29.90 in 10.0 mi Calm Calm - N/A   Mostly Cloudy
4:35 AM 59.0 °F 48.2 °F 67% 29.91 in 10.0 mi Calm Calm - N/A   Overcast
4:55 AM 60.8 °F 46.4 °F 59% 29.91 in 10.0 mi Calm Calm - N/A   Overcast
5:15 AM 60.8 °F 44.6 °F 55% 29.91 in 10.0 mi Calm Calm - N/A   Overcast
5:35 AM 60.8 °F 46.4 °F 59% 29.91 in 10.0 mi Calm Calm - N/A   Overcast
5:55 AM 59.0 °F 48.2 °F 67% 29.92 in 10.0 mi Calm Calm - N/A   Overcast
6:15 AM 57.2 °F 50.0 °F 77% 29.93 in 10.0 mi Calm Calm - N/A   Mostly Cloudy
6:35 AM 59.0 °F 50.0 °F 72% 29.93 in 10.0 mi Calm Calm - N/A   Overcast
6:55 AM 59.0 °F 48.2 °F 67% 29.95 in 10.0 mi Calm Calm - N/A   Scattered Clouds
7:15 AM 59.0 °F 48.2 °F 67% 29.95 in 10.0 mi Calm Calm - N/A   Scattered Clouds
7:35 AM 59.0 °F 46.4 °F 63% 29.95 in 10.0 mi Calm Calm - N/A   Scattered Clouds
7:55 AM 60.8 °F 46.4 °F 59% 29.95 in 10.0 mi Calm Calm - N/A   Scattered Clouds
8:15 AM 60.8 °F 48.2 °F 63% 29.95 in 10.0 mi Calm Calm - N/A   Scattered Clouds
8:35 AM 60.8 °F 46.4 °F 59% 29.95 in 10.0 mi Calm Calm - N/A   Scattered Clouds
8:55 AM 60.8 °F 46.4 °F 59% 29.94 in 10.0 mi NE 3.5 mph - N/A   Mostly Cloudy
9:15 AM 60.8 °F 46.4 °F 59% 29.94 in 10.0 mi NE 3.5 mph - N/A   Scattered Clouds
9:35 AM 62.6 °F 44.6 °F 52% 29.95 in 10.0 mi ENE 3.5 mph - N/A   Clear
9:55 AM 62.6 °F 44.6 °F 52% 29.95 in 10.0 mi Calm Calm - N/A   Clear
10:15 AM 62.6 °F 44.6 °F 52% 29.95 in 10.0 mi ENE 3.5 mph - N/A   Clear
10:35 AM 64.4 °F 44.6 °F 49% 29.94 in 10.0 mi ENE 4.6 mph - N/A   Clear
10:55 AM 64.4 °F 46.4 °F 52% 29.94 in 10.0 mi East 5.8 mph - N/A   Clear
11:15 AM 66.2 °F 48.2 °F 52% 29.93 in 10.0 mi NE 4.6 mph - N/A   Clear
11:35 AM 68.0 °F 46.4 °F 46% 29.93 in 10.0 mi Calm Calm - N/A   Clear
11:55 AM 68.0 °F 46.4 °F 46% 29.93 in 10.0 mi ESE 4.6 mph - N/A   Clear
12:15 PM 69.8 °F 46.4 °F 43% 29.92 in 10.0 mi SE 6.9 mph - N/A   Clear
12:35 PM 69.8 °F 44.6 °F 40% 29.92 in 10.0 mi Calm Calm - N/A   Clear
12:55 PM 69.8 °F 46.4 °F 43% 29.92 in 10.0 mi ESE 3.5 mph - N/A   Scattered Clouds
1:15 PM 69.8 °F 46.4 °F 43% 29.91 in 10.0 mi SE 6.9 mph - N/A   Scattered Clouds
1:35 PM 71.6 °F 46.4 °F 41% 29.90 in 10.0 mi East 3.5 mph - N/A   Scattered Clouds
1:55 PM 73.4 °F 46.4 °F 38% 29.90 in 10.0 mi Calm Calm - N/A   Scattered Clouds
2:15 PM 73.4 °F 46.4 °F 38% 29.89 in 10.0 mi SE 6.9 mph - N/A   Scattered Clouds
2:35 PM 73.4 °F 46.4 °F 38% 29.88 in 10.0 mi SSE 10.4 mph - N/A   Scattered Clouds
2:55 PM 75.2 °F 44.6 °F 34% 29.88 in 10.0 mi East 4.6 mph - N/A   Scattered Clouds
3:15 PM 73.4 °F 44.6 °F 36% 29.88 in 10.0 mi SE 3.5 mph - N/A   Mostly Cloudy
3:35 PM 73.4 °F 44.6 °F 36% 29.88 in 10.0 mi South 8.1 mph - N/A   Scattered Clouds
3:55 PM 75.2 °F 46.4 °F 36% 29.87 in 10.0 mi South 5.8 mph - N/A   Mostly Cloudy
4:15 PM 77.0 °F 46.4 °F 34% 29.87 in 10.0 mi ESE 3.5 mph - N/A   Scattered Clouds
4:35 PM 73.4 °F 48.2 °F 41% 29.86 in 10.0 mi SSW 4.6 mph - N/A   Mostly Cloudy
4:55 PM 73.4 °F 46.4 °F 38% 29.86 in 10.0 mi SE 3.5 mph - N/A   Overcast
5:15 PM 73.4 °F 46.4 °F 38% 29.87 in 10.0 mi SSE 3.5 mph - N/A   Mostly Cloudy
5:35 PM 73.4 °F 44.6 °F 36% 29.86 in 10.0 mi SSE 3.5 mph - N/A   Mostly Cloudy
5:55 PM 73.4 °F 46.4 °F 38% 29.86 in 10.0 mi SSE 5.8 mph - N/A   Mostly Cloudy
6:15 PM 73.4 °F 46.4 °F 38% 29.85 in 10.0 mi Calm Calm - N/A   Mostly Cloudy
6:35 PM 73.4 °F 46.4 °F 38% 29.85 in 10.0 mi Calm Calm - N/A   Mostly Cloudy
6:55 PM 71.6 °F 46.4 °F 41% 29.86 in 10.0 mi ESE 3.5 mph - N/A   Scattered Clouds
7:15 PM 71.6 °F 50.0 °F 46% 29.86 in 10.0 mi Calm Calm - N/A   Mostly Cloudy
7:35 PM 68.0 °F 55.4 °F 64% 29.86 in 10.0 mi North 3.5 mph - N/A   Mostly Cloudy
7:55 PM 68.0 °F 53.6 °F 60% 29.86 in 10.0 mi NNE 4.6 mph - N/A   Scattered Clouds
8:15 PM 66.2 °F 53.6 °F 64% 29.87 in 10.0 mi Calm Calm - N/A   Clear
8:35 PM 64.4 °F 53.6 °F 68% 29.88 in 10.0 mi Calm Calm - N/A   Mostly Cloudy
8:55 PM 64.4 °F 53.6 °F 68% 29.89 in 10.0 mi North 6.9 mph - N/A   Overcast
9:15 PM 64.4 °F 53.6 °F 68% 29.90 in 10.0 mi North 6.9 mph - N/A   Overcast
9:35 PM 62.6 °F 55.4 °F 77% 29.91 in 10.0 mi North 3.5 mph - N/A   Overcast
9:55 PM 62.6 °F 55.4 °F 77% 29.91 in 7.0 mi Calm Calm - N/A   Overcast
10:15 PM 60.8 °F 59.0 °F 94% 29.90 in 7.0 mi Calm Calm - N/A   Overcast
10:35 PM 59.0 °F 59.0 °F 100% 29.88 in 10.0 mi Calm Calm - N/A   Overcast
10:55 PM 59.0 °F 59.0 °F 100% 29.87 in 10.0 mi East 3.5 mph - N/A   Overcast
11:15 PM 59.0 °F 59.0 °F 100% 29.85 in 10.0 mi Calm Calm - N/A   Overcast
11:35 PM 59.0 °F 59.0 °F 100% 29.85 in 10.0 mi Calm Calm - N/A   Overcast
11:55 PM 59.0 °F 59.0 °F 100% 29.85 in 5.0 mi Calm Calm - N/A   Overcast